Regional Weather Roundup
Issued by NWS

Home | Current Version | Previous Version | Graphics & Text | Print | Product List | Glossary On
Versions: 1 2 3 4 5 6 7 8 9 10 11 12 13 14 15 16 17 18 19 20 21 22 23 24 25 26 27 28 29 30 31 32 33 34 35 36 37 38 39 40 41 42 43 44 45 46 47 48 49 50
406
ASUS45 KTFX 301610
RWRMT
MONTANA REGIONAL WEATHER ROUNDUP
NATIONAL WEATHER SERVICE GREAT FALLS MT
1000 AM MDT THU MAR 30 2017

NOTE: "FAIR" INDICATES FEW OR NO CLOUDS BELOW 12000 FEET WITH NO
SIGNIFICANT WEATHER AND/OR OBSTRUCTIONS TO VISIBILITY.

MTZ001>007-043-301700-
WEST OF THE DIVIDE

CITY           SKY/WX    TMP DP  RH WIND       PRES   REMARKS
KALISPELL      MOSUNNY   45  37  73 SW3       29.79R
MISSOULA       CLOUDY    44  39  82 NW6       29.82S
BUTTE          CLOUDY    41  33  73 CALM      29.76F
MULLAN PASS    PTSUNNY   28  27  96 SW5       29.78S
ANACONDA         N/A     39  34  81 N8        29.77F
DEER LODGE       N/A     43  34  70 N9        29.80S
EUREKA           N/A     39  36  87 CALM      29.79R
HAMILTON         N/A     45  36  70 N7        29.79S
PLAINS           N/A     45  38  76 CALM      29.83
RONAN            N/A     46  36  68 CALM      29.85S
$$

MTZ008-052>055-301700-
SOUTHWEST MONTANA

CITY           SKY/WX    TMP DP  RH WIND       PRES   REMARKS
BOZEMAN        LGT RAIN  40  37  89 SE8       29.78R
W YELLOWSTONE  CLOUDY    36  34  93 CALM      29.77S
ENNIS          CLOUDY    36  36 100 CALM      29.80F
THREE FORKS      N/A     44  19  37 CALM      29.78F
TWIN BRIDGES     N/A     42  34  73 CALM      29.77
$$

MTZ009-010-012-014-046-048-049-054-301700-
EAST SLOPES AND CENTRAL MONTANA

CITY           SKY/WX    TMP DP  RH WIND       PRES   REMARKS
CUT BANK       MOSUNNY   47  32  56 W12       29.73S
GREAT FALLS    MOSUNNY   49  34  56 W8        29.72S
HELENA         MOSUNNY   50  35  56 VRB5      29.75S
AUGUSTA          N/A     47  23  39 NW10      29.73S
CHOTEAU          N/A     50  25  37 W12       29.75R
CONRAD           N/A     52  35  52 SW14      29.77S
RAYNESFORD     PTSUNNY   48  34  58 CALM      29.74R
$$

MTZ011-013-016-021-045-047-050-051-301700-
NORTH CENTRAL MONTANA

CITY           SKY/WX    TMP DP  RH WIND       PRES   REMARKS
HAVRE          SUNNY     51  38  60 SW12      29.72R
LEWISTOWN      CLOUDY    46  34  62 CALM      29.73R
N BAR RANCH    PTSUNNY   48  32  53 NW6       29.75R
CHINOOK          N/A     45  37  76 CALM      29.72S
GEYSER         CLOUDY    48  34  57 W12       29.72R
JUDITH GAP     CLOUDY    43  35  73 SW7       29.73S
STANFORD       PTSUNNY   46  34  63 CALM      29.72S
$$

MTZ017>020-022>027-061-062-301700-
NORTHEAST MONTANA

CITY           SKY/WX    TMP DP  RH WIND       PRES   REMARKS
GLASGOW        SUNNY     50  34  54 CALM      29.69S
JORDAN           N/A     51  39  63 W5        29.68F
SIDNEY         MOSUNNY   53  41  63 S6        29.69S
WOLF POINT     MOSUNNY   53  35  50 CALM      29.68F
MALTA          SUNNY     52  39  62 W7        29.69S
PLENTYWOOD       N/A     55  34  44 CALM      29.69S
POPLAR           N/A     54  34  47 CALM      29.69S
SCOBEY           N/A     53  31  43 CALM      29.69
$$

MTZ028>42-056>058-301700-
SOUTHCENTRAL AND SOUTHEAST MONTANA

CITY           SKY/WX    TMP DP  RH WIND       PRES   REMARKS
BAKER          CLOUDY    50  40  68 SE6       29.71S
BILLINGS       LGT RAIN  46  42  86 W5        29.74S
LIVINGSTON     LGT RAIN  41  37  86 SW12      29.76S
MILES CITY     CLOUDY    53  37  54 CALM      29.68F
FORSYTH          N/A     48  41  76 W5        29.68S
LAUREL           N/A     45  35  67 W2        29.76R
$$

REGIONAL REPORTS...DAKOTAS

CITY           SKY/WX    TMP DP  RH WIND       PRES   REMARKS
WILLISTON      CLOUDY    51  39  63 E6        29.71S
MINOT          CLOUDY    48  37  65 S12       29.76R
DICKINSON      CLOUDY    46  38  73 S12       29.72S
BEACH          CLOUDY    52  41  66 S10       29.73S
TIOGA          CLOUDY    45  45 100 E10       29.73F
WATFORD CITY     N/A     48  41  76 E9        29.70S
BISMARCK       CLOUDY    44  35  70 S17       29.84F
GRAND FORKS    MOSUNNY   48  41  76 S15       29.91F
FARGO          SUNNY     46  40  79 E6        29.93S
BUFFALO SD       N/A     48  40  73 SE10      29.67S
RAPID CITY     CLOUDY    40  39  97 SE10      29.76S
$$

REGIONAL REPORTS...WYOMING/IDAHO/WASHINGTON

CITY           SKY/WX    TMP DP  RH WIND       PRES   REMARKS
GILLETTE       CLOUDY    47  38  71 S7        29.71F
SHERIDAN       CLOUDY    46  40  79 VRB5      29.70F
BUFFALO WY     CLOUDY    51  32  48 N7        29.72S
CODY           LGT RAIN  47  38  71 NW3       29.71F
YELLOWSTONE LA   N/A     34  33  96 CALM      29.78F
IDAHO FALLS    CLOUDY    44  42  93 SW8       29.74F
SALMON         CLOUDY    43  37  81 N3        29.74S
BOISE          LGT SNOW  34  34 100 NW24G36   29.73S VSB 3/4 WCI  21
SPOKANE        PTSUNNY   38  33  82 S9        29.87R WCI  31
$$

REGIONAL REPORTS...ALBERTA

CITY           SKY/WX    TMP DP  RH WIND       PRES   REMARKS
EDMONTON       CLOUDY    32  30  93 E6        29.79R FOG     WCI  26
CALGARY        PTSUNNY   46  27  46 NW12      29.69R
LETHBRIDGE     MOSUNNY   50  28  43 W21G28    29.68S
MEDICINE HAT   MOSUNNY   52  34  50 W13       29.68S
WATERTON GATE    N/A     45  23  42 SW20G29     N/A
CARDSTON         N/A     48  21  34 W7          N/A
MILK RIVER       N/A     50  32  50 W22G29      N/A
$$

REGIONAL REPORTS...SASKATCHEWAN

CITY           SKY/WX    TMP DP  RH WIND       PRES   REMARKS
SWIFT CURRENT  SUNNY     48  32  53 W7        29.67R
REGINA         LGT RAIN  46  34  61 E7        29.72S
SASKATOON      CLOUDY    34  34 100 NE13      29.82R WCI  25
CYPRESS HILLS    N/A     48  27  43 W10G18      N/A
VAL MARIE        N/A     52  34  50 W5          N/A
ROCKGLEN         N/A     50  32  50 SW6         N/A
ASSINIBOIA       N/A     34  34 100 E7          N/A  WCI  28
$$




USA.gov is the U.S. government's official web portal to all federal, state and local government web resources and services.